Location: Unspecified
(0.0000°N, 0.0000°E)
Time: 23:01:42
(UTC+00:00)

Courier 1B Rocket - Visible Passes

Search period start: 19 November 2019 00:00
Search period end: 29 November 2019 00:00
Orbit: 920 x 1202 km, 28.2° (Epoch: 19 November)

Date Brightness Start Highest point End Pass type
(mag) Time Alt. Az. Time Alt. Az. Time Alt. Az.
19 Nov 7.5 20:13:07 10° NNW 20:13:35 11° NNW 20:13:35 11° NNW visible
20 Nov 7.0 19:12:52 10° NNW 19:16:40 16° NNE 19:16:40 16° NNE visible
21 Nov 7.1 18:13:32 10° N 18:15:33 11° NNE 18:17:34 10° NE visible
21 Nov 6.9 20:03:33 10° NNW 20:06:16 21° NNW 20:06:16 21° NNW visible
22 Nov 6.5 19:03:02 10° NNW 19:08:51 23° NNE 19:09:35 23° NE visible
22 Nov 7.6 20:55:15 10° NW 20:56:00 13° NW 20:56:00 13° NW visible
23 Nov 6.9 18:02:55 10° NNW 18:07:15 16° NNE 18:11:40 10° ENE visible
23 Nov 6.1 19:54:15 10° NW 19:59:28 39° NNW 19:59:28 39° NNW visible
24 Nov 6.1 18:53:32 10° NNW 19:00:15 33° NNE 19:03:05 26° ENE visible
24 Nov 6.9 20:46:24 10° WNW 20:49:31 27° WNW 20:49:31 27° WNW visible
25 Nov 5.2 19:45:12 10° NW 19:52:52 71° NNE 19:53:19 69° NE visible
25 Nov 7.9 21:39:41 10° W 21:39:46 10° W 21:39:46 10° W visible
26 Nov 5.6 18:44:18 10° NW 18:51:32 48° NNE 18:57:16 18° E visible
26 Nov 6.2 20:37:52 10° WNW 20:43:43 47° WSW 20:43:43 47° WSW visible
27 Nov 7.7 04:25:47 10° S 04:27:19 11° SSE 04:28:50 10° SSE visible
27 Nov 5.4 19:36:26 10° WNW 19:44:03 80° SSW 19:47:49 35° SE visible
27 Nov 7.5 21:31:53 10° W 21:34:18 18° WSW 21:34:18 18° WSW visible
28 Nov 7.2 05:15:10 10° SSW 05:20:27 24° SSE 05:25:29 10° ESE visible
28 Nov 5.3 18:35:19 10° NW 18:42:44 72° NNE 18:50:32 10° ESE visible
28 Nov 6.5 20:29:42 10° W 20:36:42 37° SSW 20:38:30 33° S visible
